Location: Newark
(51.0500°N, 12.4500°E)
Time: 02:17:23
(UTC+00:00)

Vanguard 1 - Pass Details

Date: 26 February 2020
Orbit: 649 x 3833 km, 34.2° (Epoch: 08 April)

Event Time Altitude Azimuth Distance (km) Brightness Sun altitude
Rises 02:38:42 0° 169° (S) 7,696 14.5 -32.0°
Reaches altitude 10° 02:51:27 10° 141° (SE) 6,935 14.5 -30.2°
Maximum altitude 02:56:06 11° 129° (SE) 6,817 14.6 -29.5°
Drops below altitude 10° 03:00:40 10° 117° (ESE) 6,805 14.8 -28.9°
Sets 03:12:17 0° 89° (E) 7,285 15.6 -27.2°
